COSMOS 44

Satellite information

Favourite Embed

Satellite Type and Status

PAYLOADIN ORBIT

Key statistics

Satellite COSMOS 44 at a glance.

Uptime

22229

Days in orbit

Revolutions

≈ 14.7

Per day

Orbit

LEO

Low Earth Orbit

Inclination

65.1

Latest

Satellite identification and parameters

Extended collection of information and parameters for COSMOS 44.

Object identification

Identified? True

Debris? False

Object name: COSMOS 44

International designator: 1964-053A

Object number (NORAD): 876

Object ID (CCSDS): 876

Country: COMMONWEALTH OF INDEPENDENT STATES (CIS)

Current information (Y/N): Y

RCS size: LARGE

Orbital parameters

Period: 98.266 minutes

Inclination: 65.0601 deg

SMA: 7053.919 km

Apoapsis: 764.314 km

Periapsis: 587.255 km

RAAN: 266.7581 deg

Eccentricy: 0.0125504

Argument of periapsis: 31.6932 deg

Mean anomaly: 329.1646 deg

Mean motion: 14.65402826 rev/day

Mean motion (dot): 0.00000077 rev/day2

B* drag term: 0.000035578 1/REarth

Two-line elements (TLE)

Creation date: July 6, 2025, 2:56 p.m.

Reference frame: TEME

Reference center: EARTH

Epoch: July 6, 2025, 1:42 p.m. UTC

TLE line 0: 0 COSMOS 44

TLE line 1: 1 876U 64053A 25187.57109723 .00000077 00000-0 35578-4 0 9992

TLE line 2: 2 876 65.0601 266.7581 0125504 31.6932 329.1646 14.65402826238548

Live tracking on map

Real-time ground track for satellite COSMOS 44.

In-orbit conjunctions

A list of the most updated potential collisions computed for object COSMOS 44.

Target Orbit TCA Probability of collision Miss distance Type
FENGYUN 1C DEB SSO 2025-07-09 06:18:08 0.0001227024 375.0 (m) DEBRIS
DELTA 1 DEB SSO 2024-11-04 12:29:52 0.0001794924 206.0 (m) DEBRIS
COSMOS 2251 DEB LEO 2024-10-16 09:18:00 0.0001973212 634.0 (m) DEBRIS
CZ-6A DEB SSO 2024-09-17 12:36:29 0.0003285983 63.0 (m) DEBRIS
CZ-6A DEB SSO 2024-06-16 14:30:59 0.0001472267 420.0 (m) DEBRIS

Associated space launch

The Meteor-1 series was the first series of Soviet meteorological satellites.

COSMOS 44 was lifted into orbit during the mission ‘Vostok 8A92M | Meteor-1 1’, on board a Vostok 8A92M space rocket.

The launch took place on Aug. 28, 1964, 4 p.m. from 31/6.

For more information about the launch, click the button.

Launch to space Vostok 8A92M | Meteor-1 1
Vostok 8A92M | Meteor-1 1

Agency: N/A

Status: Launch Successful

Launch date: Aug. 28, 1964, 4 p.m. UTC

Rocket: Vostok 8A92M

Launch pad: 31/6

Location: Baikonur Cosmodrome, Republic of Kazakhstan

...

Latest news about this satellite

There are no fresh news available about this satellite. Check back as we update our databases every day.


Newsletter sign-up

Weekly statistics, charts and insights to help you stay on top of the space industry.